Theta_e
328 327 326 326 325 325 326 327 326 326 325 323 321 320 318 317 316 315 314 313 313 313 314 317 317 316 318 318 318 318 317 317 316 316 316 315 314 314 315 314 314 314 314
322 322 323 323 323 322 321 321 318 316 315 314 314 313 312 312 312 311 311 311 313 314 314 315 316 316 318 317 317 316 316 316 315 314 314 313 313 313 314 313 313 313 313
323 322 322 320 320 322 320 322 315 313 312 311 311 311 310 310 309 309 310 311 313 314 315 315 316 316 316 316 316 315 315 314 314 313 312 312 312 312 312 313 313 313 314
315 316 315 315 314 315 314 313 312 310 309 307 307 307 309 309 309 310 311 310 310 312 313 314 314 314 315 315 314 314 314 313 312 311 311 311 312 313 313 313 314 314 314
314 314 314 313 313 311 309 307 306 306 306 307 308 309 310 310 309 308 309 309 310 312 313 313 314 313 312 310 310 310 311 311 312 312 312 312 313 314 314 315 314 313 314
310 314 311 308 308 307 306 307 307 308 308 309 310 310 310 310 308 307 309 310 308 310 312 312 313 312 312 311 310 310 310 309 310 312 313 313 314 314 314 314 314 313 312
307 305 303 303 304 305 307 307 308 308 308 308 309 308 306 307 307 308 309 309 309 309 311 311 311 312 312 313 312 313 313 312 312 312 311 312 312 314 314 312 313 312 311
302 302 304 305 306 307 307 307 306 307 307 306 307 307 306 307 306 307 308 307 308 309 310 310 311 311 313 313 312 314 316 317 317 316 315 314 312 312 311 310 309 309 309
303 305 307 306 305 305 304 304 304 304 304 304 305 305 308 305 306 307 310 312 313 314 315 314 314 314 313 314 313 314 316 317 315 314 314 314 313 313 312 307 308 308 308
305 305 306 305 305 304 304 303 303 302 303 304 303 305 305 307 309 310 312 313 316 315 315 315 314 312 315 315 311 313 312 312 313 315 315 314 312 313 314 309 308 307 307
304 304 306 305 303 302 302 303 303 304 304 304 304 304 306 309 311 312 313 315 314 315 315 314 314 315 315 313 313 313 314 315 315 314 314 314 314 314 313 311 308 307 307
305 305 302 301 302 303 304 304 304 305 305 306 307 308 309 310 311 312 313 313 314 313 313 313 314 315 316 315 315 315 316 316 315 315 314 313 313 313 312 311 307 307 307
301 301 301 301 302 303 304 304 304 304 304 305 306 307 309 310 312 313 313 313 315 315 315 314 315 315 316 316 315 316 316 315 314 314 313 312 312 312 310 308 308 308 308
303 303 303 301 302 305 305 304 303 302 302 304 305 306 308 310 312 313 312 312 315 316 315 312 314 314 314 315 316 317 317 316 316 314 314 313 311 310 309 308 309 309 308
303 303 300 304 303 304 304 303 301 300 301 302 302 303 307 310 310 309 308 311 314 314 312 313 314 314 315 316 316 315 317 317 315 314 314 315 311 310 309 308 308 308 309
301 302 302 303 302 298 301 300 300 299 299 299 300 303 305 306 308 308 308 311 314 314 312 310 311 312 310 311 313 316 315 316 317 316 316 317 311 312 310 308 309 310 310
300 300 301 299 298 297 299 301 300 298 298 299 301 303 304 306 308 309 309 311 313 309 311 308 309 309 308 308 309 312 314 315 316 316 315 315 315 312 312 312 312 311 310
296 298 299 299 295 295 298 299 300 300 300 301 301 302 304 306 307 309 310 311 309 312 303 302 307 308 308 307 309 313 314 315 314 314 313 312 314 313 312 311 311 311 312
295 294 297 297 298 294 297 298 298 298 299 300 300 301 303 304 306 307 308 309 305 303 306 298 298 308 309 310 310 311 313 313 312 312 311 311 312 313 313 313 313 314 315
292 293 294 294 294 295 294 295 296 297 296 297 296 299 302 302 305 306 306 304 302 300 300 298 296 301 308 310 313 313 315 315 315 313 313 313 312 311 311 312 312 310 310
292 291 291 291 291 291 291 290 290 289 289 289 289 290 296 292 293 298 299 301 299 299 295 298 293 294 301 306 309 312 313 315 315 315 314 314 313 313 312 311 311 312 313
291 291 290 290 289 288 288 289 289 289 289 288 288 288 288 289 289 290 291 293 296 295 295 295 292 291 295 300 305 307 311 314 315 315 315 314 314 313 313 312 311 312 311
290 290 290 289 289 288 288 287 287 288 288 289 289 289 289 288 288 289 289 289 289 290 290 291 293 292 291 293 294 298 304 309 313 313 314 314 314 314 313 313 313 311 310
289 289 289 289 288 288 288 288 287 287 287 288 288 288 288 288 288 288 288 288 288 288 288 288 289 289 291 291 291 292 294 300 307 312 312 313 314 314 313 313 313 313 312
288 288 288 288 288 288 288 288 288 287 287 287 287 287 287 287 288 288 288 288 288 288 288 288 288 288 289 289 290 290 291 293 299 306 308 311 313 313 313 313 313 313 313
287 287 287 287 287 287 287 287 287 287 287 287 287 287 287 287 287 287 287 287 287 287 287 287 287 287 288 289 289 290 290 291 292 298 302 304 309 311 312 312 313 313 313
Wind_Speed
22 20 16 12 8 6 6 4 3 5 7 9 10 11 13 14 18 20 22 23 23 25 26 25 26 27 25 25 25 26 27 30 36 36 32 32 32 33 31 32 32 30 29
19 16 12 9 7 5 5 7 6 8 11 13 15 16 17 18 21 23 24 23 24 24 26 26 25 24 24 25 26 27 27 30 33 39 33 32 30 30 31 32 31 26 25
15 12 11 8 3 1 5 10 13 15 16 18 18 19 20 21 21 21 21 22 23 22 23 23 24 24 26 26 26 30 30 29 32 35 36 33 32 29 27 26 26 23 22
14 11 8 5 3 3 5 10 14 17 18 19 19 18 18 19 20 19 17 22 25 23 23 23 24 24 25 26 27 28 29 33 33 36 34 34 29 25 25 25 24 21 21
10 7 6 6 7 8 10 13 15 16 16 16 16 15 15 18 16 24 26 25 22 22 22 22 22 24 28 30 30 29 28 30 32 31 32 33 32 28 27 26 27 28 26
10 7 9 9 10 11 12 12 12 12 11 12 12 14 17 15 21 23 22 22 20 19 20 21 23 25 25 29 31 33 31 32 34 35 37 38 40 39 36 34 34 34 34
7 6 8 10 10 11 11 10 10 10 10 11 13 19 15 13 17 16 17 18 19 20 21 23 24 22 25 25 27 30 35 37 38 42 45 48 49 47 47 43 41 41 39
8 8 8 8 9 9 9 9 10 10 10 11 13 17 14 14 16 17 18 19 19 18 20 21 23 25 25 28 30 35 39 39 40 42 43 45 45 44 42 41 39 37 35
10 11 11 11 10 9 9 10 10 11 11 11 11 12 13 13 16 17 18 19 20 21 22 23 23 26 27 30 34 38 41 42 39 40 39 39 36 32 31 37 40 32 28
12 12 11 10 10 10 10 11 12 11 11 10 10 10 13 12 14 15 18 21 24 25 26 23 24 25 30 34 32 32 34 34 36 36 34 30 26 25 20 19 26 34 26
10 9 8 9 9 9 9 9 11 12 13 11 9 9 8 10 11 13 17 20 25 27 26 24 24 28 31 23 19 21 24 26 25 23 21 17 16 16 9 15 16 24 32
7 7 8 9 8 9 11 11 12 14 15 12 10 8 7 10 11 12 18 21 22 21 22 21 26 29 28 18 16 19 20 21 22 26 25 23 15 11 9 9 2 10 20
8 8 10 11 10 11 13 14 15 15 16 15 15 14 13 15 14 13 19 24 22 20 24 29 33 30 19 13 15 21 20 22 22 24 23 24 20 14 7 4 4 7 11
7 9 10 11 12 13 13 17 15 17 17 16 17 18 18 20 20 20 20 23 20 26 30 32 33 27 19 19 18 18 22 21 21 19 17 21 18 18 10 4 6 8 10
8 9 9 10 12 13 15 17 16 17 18 17 18 20 21 21 21 18 21 20 23 29 30 37 34 31 30 28 26 25 23 24 21 17 17 13 15 14 13 11 8 10 8
9 9 9 10 12 11 14 14 15 14 15 14 15 16 16 17 16 14 15 15 20 27 32 38 39 41 39 36 33 34 31 30 29 28 28 18 18 13 11 13 7 5 6
10 9 9 10 11 11 12 13 13 12 12 11 12 13 14 14 14 13 12 11 20 25 35 40 42 43 44 41 39 40 38 33 31 28 31 23 15 18 16 11 8 13 14
10 11 11 11 11 11 12 13 15 14 14 12 12 11 11 11 12 12 11 20 23 26 27 31 42 44 44 42 42 41 38 35 34 35 36 27 15 11 9 12 11 8 2
8 9 12 13 12 12 12 12 14 15 16 18 18 16 15 16 14 16 20 24 24 25 25 26 30 40 45 47 46 43 41 41 40 36 36 37 26 19 15 13 9 7 4
11 12 12 10 10 11 11 13 14 15 17 19 21 21 20 23 24 22 23 26 27 25 26 25 26 30 36 41 42 42 41 42 41 39 40 38 36 33 27 19 19 18 15
9 10 14 11 11 11 11 12 12 12 13 16 15 19 19 20 22 26 26 25 27 28 29 27 26 27 30 34 38 40 39 38 37 38 36 37 37 35 31 28 25 23 18
10 10 11 11 11 13 12 12 11 13 14 14 15 17 22 17 18 20 23 25 26 27 27 28 28 28 30 32 34 36 37 36 35 37 37 32 30 31 31 29 31 27 24
12 12 12 11 12 14 12 13 13 12 13 14 15 16 17 19 19 19 19 19 23 23 26 27 27 30 31 30 31 33 34 33 33 32 32 31 30 27 25 26 25 25 29
13 13 12 13 14 13 13 13 14 16 15 15 16 16 17 17 18 19 19 19 19 21 23 26 27 28 28 29 29 29 29 29 26 23 27 26 26 26 26 25 23 22 22
13 13 13 13 13 13 13 13 14 14 15 16 16 17 17 17 18 19 20 20 20 20 21 22 24 26 26 26 26 27 25 25 24 22 22 21 22 23 24 24 23 23 21
13 13 12 12 12 12 12 13 13 14 15 15 15 16 17 17 18 20 19 21 21 20 21 21 24 24 27 26 25 24 24 24 24 22 22 21 19 19 19 20 21 20 20
Wind_Direction
132 131 134 131 122 72 73 36 313 284 273 271 274 277 279 282 282 284 286 288 287 286 286 286 286 287 286 283 281 279 279 280 283 289 288 288 286 286 284 284 287 289 291
121 126 124 122 115 86 32 356 305 300 292 287 286 287 289 291 290 290 289 286 287 286 287 287 286 287 282 281 280 277 275 278 281 287 289 288 289 289 286 283 285 287 286
118 117 115 111 111 172 296 297 304 289 291 292 292 292 291 291 291 291 290 290 289 289 290 290 290 287 282 278 276 276 282 284 283 283 286 286 285 286 285 282 284 283 288
108 108 102 91 55 5 309 280 281 288 291 296 300 303 302 301 301 301 293 293 294 294 291 288 287 285 283 285 287 288 285 286 286 285 285 290 290 290 284 283 281 283 287
94 86 63 16 356 323 308 303 302 304 304 306 308 309 311 309 305 285 296 298 298 296 294 291 289 283 278 284 287 284 283 284 284 284 284 286 287 286 281 283 276 278 282
58 29 358 345 336 328 326 324 320 314 310 318 320 322 316 311 285 297 302 304 302 299 298 296 294 297 300 294 294 296 295 285 279 278 279 278 278 278 279 276 271 271 276
49 23 2 356 346 337 335 332 325 324 326 327 329 326 327 322 308 312 309 308 306 302 300 299 299 298 293 297 298 290 283 281 278 279 279 278 280 280 277 275 272 273 277
36 18 359 347 341 342 344 339 336 336 330 324 326 331 330 329 319 318 317 318 309 306 301 300 302 304 303 304 299 294 293 292 290 289 288 289 286 285 281 280 279 277 279
39 27 24 26 21 16 4 353 349 340 334 326 324 328 323 328 328 335 335 336 336 335 330 321 312 312 316 312 302 301 303 301 302 300 299 297 293 288 281 271 267 263 260
44 38 38 31 21 16 8 2 1 354 338 329 329 332 324 341 343 345 341 342 340 339 339 346 344 329 319 313 307 313 314 316 314 312 310 307 305 294 290 258 251 244 241
47 42 33 29 29 14 19 15 19 14 10 11 358 343 342 348 1 350 347 347 344 347 351 346 341 340 339 337 332 346 349 348 354 351 344 334 325 320 300 292 257 236 228
55 46 35 31 35 24 25 20 11 11 7 17 22 17 9 19 8 4 9 1 354 0 346 354 354 348 344 340 358 356 345 346 355 1 355 350 332 328 300 310 241 215 218
52 41 38 31 30 26 23 20 16 18 24 31 30 33 34 27 18 14 12 13 3 8 12 14 6 355 349 360 6 0 5 8 9 17 3 4 3 5 343 350 121 155 192
53 53 38 34 37 37 29 21 23 21 26 28 29 28 25 24 17 11 17 11 11 23 18 13 11 10 23 20 18 8 9 13 8 13 6 3 9 20 21 42 134 153 154
57 56 41 40 34 35 25 24 26 14 18 21 19 19 17 18 18 12 9 5 23 30 23 23 22 28 34 32 31 24 25 23 21 10 3 1 13 33 37 54 100 131 139
53 54 49 45 49 35 33 23 18 17 16 16 10 18 17 12 11 7 7 9 34 35 28 29 29 31 32 30 30 33 30 28 31 32 23 21 39 28 54 80 112 107 112
49 52 53 44 44 36 38 35 33 23 25 18 12 12 11 14 18 21 11 19 38 38 38 35 33 32 31 32 37 37 35 35 32 26 32 35 56 48 64 55 62 102 108
36 46 53 53 52 41 42 41 39 40 44 45 34 24 18 23 26 30 23 43 35 38 32 24 29 29 31 34 38 37 37 37 36 35 33 31 46 73 85 98 107 109 93
54 43 43 49 49 52 40 47 47 50 53 57 58 54 44 43 37 34 33 39 31 30 28 21 18 24 27 33 36 39 40 41 43 42 43 37 43 55 64 70 77 89 91
36 60 63 49 43 46 51 45 45 43 43 43 38 38 39 42 39 35 35 34 33 31 26 26 18 19 29 32 32 33 39 39 39 42 47 42 36 38 50 55 60 72 73
55 44 58 52 52 51 47 41 37 33 33 32 26 27 39 33 32 39 38 34 29 28 29 31 16 16 20 28 31 31 35 39 38 38 45 44 47 39 39 45 52 56 62
60 58 56 56 54 54 52 48 39 32 30 29 27 19 32 35 29 28 30 35 33 28 28 29 25 20 23 24 25 28 29 31 38 39 40 41 42 46 37 40 45 48 50
65 63 60 57 51 52 49 44 43 42 35 32 31 27 26 25 29 26 23 18 24 29 26 27 27 24 24 27 26 24 23 25 31 35 40 40 41 43 48 41 36 38 47
63 63 62 54 60 51 54 47 42 36 42 40 36 32 30 28 24 24 24 21 20 16 19 21 24 24 20 20 20 23 20 17 23 29 36 35 44 46 45 47 43 48 44
66 63 62 61 57 53 48 48 43 42 41 39 37 33 30 30 27 24 23 22 20 18 16 18 15 16 20 19 16 17 15 15 16 13 31 26 31 38 43 44 47 46 50
66 64 60 58 56 55 49 44 39 38 37 34 34 29 26 25 24 21 20 18 18 16 16 15 14 16 16 17 16 15 13 12 10 11 24 19 23 29 33 35 37 44 44